Airfield :
LOGIN :

Register | Disclaimer

   EN    FR    IT 

 










Legend :    VFR   Marginal VFR   IFR   Intensive IFR   Very Intensive IFR
Visi :
Ceiling :
>= 8 km
>= 3000ft
5 to 8 km
1000 to 3000 ft
1500m to 5 km
500 to 1000 ft
800 to 1500m
200 to 500 ft
< 800m
< 200 ft
Symbols :   Thunderstorms  Fog  Heavy snow  Heavy precipitations  Wind > 20 kt
SIGMETs :     Misc.  Thunderstorms  Icing  Turbulence  Mountain Waves  Volcanic Ashes







- Airport Elevation : 325 ft
- IATA code : POX
- Download approach charts


LFPT - Pontoise

CURRENT METAR :
  • 251930Z AUTO 04008KT CAVOK 09/05 Q1035

EXPIRED METARs :
  • 251900Z AUTO 04007KT CAVOK 09/04 Q1035
  • 251830Z AUTO 05006KT CAVOK 10/04 Q1034
  • 251800Z AUTO 06005KT CAVOK 11/04 Q1034
  • 251730Z AUTO 07006KT CAVOK 13/04 Q1034
  • 251700Z AUTO 08008KT CAVOK 15/04 Q1034

TAF N/A
ATIS : +33 1 30 30 52 08
No reported NOTAMs for that airfield.



MET'MAP, your aeronautical weather chart ! - Copyright ORBIFLY December 2007 - Disclaimer

ORBIFLY MET'MAP TEAM :

Programming & Development : Alexandra Zaïnal
Concept & Development : Baudouin d'Aumeries
Co-Development & Prog : Marc-Olivier Méhu
Technical & hardware support : Manuel Goepfert

Contact : metmap@orbifly.com




SOURCES & CREDITS :

   NOAA